Weather History for Ozark, AL

Change the Weather History Date:

Friday, March 9, 2012

  Actual Average Record
Temperature  
Mean Temperature 58 °F -  
Max Temperature 65 °F 66 °F 80 °F (1999)
Min Temperature 50 °F 44 °F 30 °F (2008)
Degree Days  
Heating Degree Days 6    
Growing Degree Days 8 (Base 50)    
Moisture  
Dew Point 61 °F    
Average Humidity 93    
Maximum Humidity 100    
Minimum Humidity 57    
Precipitation  
Precipitation 0.12 in - - ()
Sea Level Pressure  
Sea Level Pressure 30.20 in    
Wind  
Wind Speed 5 mph (NNW)    
Max Wind Speed 16 mph    
Max Gust Speed 23 mph    
Visibility 8 miles    
Events Rain    
Averages and records for this station are not official NWS values.
T = Trace of Precipitation, MM = Missing Value Source: NWS Daily Summary

Daily Weather History Graph

Daily Weather History Graph

Search for Another Location

Airport:

Trip Planner

Search our weather history database for the weather conditions in past years. The results will help you decide how hot, cold, wet, or windy it might be!

Date:

Astronomy

Mar. 09, 2012 Rise Set
Actual Time 5:59 AM CST 5:47 PM CST
Civil Twilight 5:35 AM CST 6:11 PM CST
Nautical Twilight 5:07 AM CST 6:39 PM CST
Astronomical Twilight 4:39 AM CST 7:07 PM CST
Moon 7:33 PM CST (3/9) 6:27 AM CST (3/9)
Length of Visible Light 12h 36m
Length of Day
11h 47m
Full, 97% of the Moon is Illuminated
Mar 9
Full
Mar 14
Last Quarter
Mar 22
New
Mar 30
First Quarter
Apr 6
Full

Hourly Weather History & Observations

Time (CST) Temp. Dew Point Humidity Pressure Visibility Wind Dir Wind Speed Gust Speed Precip Events Conditions
12:22 AM 64.4 °F 62.6 °F 94% 30.15 in 10.0 mi SW 8.1 mph - N/A   Overcast
12:33 AM 64.4 °F 62.6 °F 94% 30.15 in 10.0 mi SW 6.9 mph - N/A   Overcast
12:55 AM 63.3 °F 62.4 °F 97% 30.14 in 10.0 mi South 8.1 mph - N/A   Overcast
1:16 AM 62.6 °F 62.6 °F 100% 30.13 in 10.0 mi South 6.9 mph - N/A   Overcast
1:38 AM 62.6 °F 62.6 °F 100% 30.12 in 6.0 mi South 5.8 mph - N/A   Overcast
1:55 AM 63.1 °F 62.6 °F 98% 30.12 in 5.0 mi South 8.1 mph - N/A   Overcast
2:20 AM 62.6 °F 62.6 °F 100% 30.13 in 10.0 mi SW 6.9 mph - N/A   Overcast
2:27 AM 62.6 °F 62.6 °F 100% 30.13 in 10.0 mi SW 8.1 mph - N/A   Overcast
2:55 AM 63.0 °F 62.4 °F 98% 30.14 in 10.0 mi WSW 5.8 mph - N/A   Overcast
3:35 AM 62.6 °F 62.6 °F 100% 30.14 in 8.0 mi Calm Calm - N/A   Scattered Clouds
3:55 AM 61.5 °F 61.0 °F 98% 30.14 in 10.0 mi Calm Calm - N/A   Clear
4:03 AM 60.8 °F 60.8 °F 100% 30.14 in 2.5 mi Calm Calm - N/A   Clear
4:04 AM 60.8 °F 60.8 °F 100% 30.14 in 1.8 mi Calm Calm - N/A   Clear
4:06 AM 60.8 °F 60.8 °F 100% 30.15 in 1.2 mi Calm Calm - N/A   Clear
4:13 AM 60.8 °F 60.8 °F 100% 30.15 in 2.0 mi Calm Calm - N/A   Partly Cloudy
4:14 AM 60.8 °F 60.8 °F 100% 30.15 in 3.0 mi Calm Calm - N/A   Partly Cloudy
4:23 AM 60.8 °F 60.8 °F 100% 30.15 in 10.0 mi WNW 4.6 mph - N/A   Mostly Cloudy
4:27 AM 62.6 °F 60.8 °F 94% 30.15 in 10.0 mi WNW 3.5 mph - N/A   Mostly Cloudy
4:55 AM 62.4 °F 62.1 °F 99% 30.16 in 9.0 mi Calm Calm - N/A   Overcast
4:57 AM 62.6 °F 62.6 °F 100% 30.16 in 9.0 mi Calm Calm - N/A   Overcast
5:14 AM 62.6 °F 62.6 °F 100% 30.17 in 10.0 mi Calm Calm - N/A   Overcast
5:21 AM 62.6 °F 62.6 °F 100% 30.16 in 10.0 mi Calm Calm - N/A   Overcast
5:38 AM 62.6 °F 62.6 °F 100% 30.17 in 9.0 mi Calm Calm - N/A   Overcast
5:47 AM 62.6 °F 62.6 °F 100% 30.17 in 6.0 mi Calm Calm - N/A   Overcast
5:51 AM 62.6 °F 62.6 °F 100% 30.17 in 5.0 mi Calm Calm - N/A   Overcast
5:55 AM 62.6 °F 62.2 °F 99% 30.17 in 6.0 mi Calm Calm - N/A   Overcast
6:25 AM 62.6 °F 62.6 °F 100% 30.18 in 7.0 mi ESE 3.5 mph - N/A   Overcast
6:35 AM 62.6 °F 62.6 °F 100% 30.18 in 7.0 mi Calm Calm - N/A   Overcast
6:55 AM 63.1 °F 62.8 °F 99% 30.19 in 8.0 mi Calm Calm - N/A   Overcast
6:58 AM 62.6 °F 62.6 °F 100% 30.19 in 8.0 mi Calm Calm - N/A   Overcast
7:12 AM 64.4 °F 62.6 °F 94% 30.19 in 4.0 mi NNW 3.5 mph - N/A   Overcast
7:17 AM 64.4 °F 64.4 °F 100% 30.20 in 2.5 mi NW 5.8 mph - N/A   Overcast
7:18 AM 64.4 °F 64.4 °F 100% 30.20 in 2.5 mi NW 4.6 mph - N/A   Overcast
7:19 AM 64.4 °F 64.4 °F 100% 30.20 in 2.5 mi NNW 4.6 mph - N/A   Light Drizzle
7:20 AM 64.4 °F 64.4 °F 100% 30.20 in 2.5 mi NNW 3.5 mph - N/A   Light Drizzle
7:23 AM 64.4 °F 64.4 °F 100% 30.20 in 2.5 mi Calm Calm - N/A   Light Drizzle
7:26 AM 64.4 °F 64.4 °F 100% 30.20 in 3.0 mi Calm Calm - N/A   Light Drizzle
7:30 AM 64.4 °F 64.4 °F 100% 30.20 in 5.0 mi NW 3.5 mph - N/A   Light Drizzle
7:31 AM 64.4 °F 64.4 °F 100% 30.20 in 3.0 mi NW 3.5 mph - N/A   Overcast
7:36 AM 64.4 °F 64.4 °F 100% 30.20 in 3.0 mi WNW 3.5 mph - N/A Rain Light Rain
7:43 AM 64.4 °F 62.6 °F 94% 30.21 in 5.0 mi WNW 5.8 mph - N/A Rain Light Rain
7:45 AM 64.4 °F 62.6 °F 94% 30.21 in 4.0 mi WNW 5.8 mph - N/A Rain Light Rain
7:48 AM 64.4 °F 62.6 °F 94% 30.21 in 4.0 mi NW 6.9 mph - N/A Rain Light Rain
7:49 AM 64.4 °F 62.6 °F 94% 30.21 in 4.0 mi NW 8.1 mph - N/A Rain Light Rain
7:55 AM 64.0 °F 63.7 °F 99% 30.21 in 4.0 mi NW 8.1 mph - 0.02 in Rain Rain
7:58 AM 64.4 °F 64.4 °F 100% 30.21 in 4.0 mi NW 8.1 mph - N/A Rain Heavy Rain
8:00 AM 64.4 °F 64.4 °F 100% 30.21 in 4.0 mi NNW 6.9 mph - N/A Rain Rain
8:43 AM 64.4 °F 62.6 °F 94% 30.22 in 10.0 mi North 16.1 mph - N/A Rain Light Rain
8:53 AM 62.6 °F 60.8 °F 94% 30.22 in 10.0 mi NE 12.7 mph - N/A Rain Light Rain
8:55 AM 63.1 °F 61.5 °F 94% 30.22 in 10.0 mi NE 12.7 mph - 0.07 in Rain Light Rain
8:58 AM 62.6 °F 60.8 °F 94% 30.22 in 10.0 mi NE 12.7 mph - N/A Rain Light Rain
9:06 AM 62.6 °F 60.8 °F 94% 30.22 in 10.0 mi NE 10.4 mph - N/A   Mostly Cloudy
9:55 AM 62.8 °F 61.0 °F 94% 30.22 in 10.0 mi NE 6.9 mph - 0.00 in   Mostly Cloudy
10:19 AM 62.6 °F 60.8 °F 94% 30.23 in 10.0 mi North 6.9 mph - N/A   Mostly Cloudy
10:20 AM 62.6 °F 60.8 °F 94% 30.23 in 10.0 mi North 6.9 mph - N/A   Light Drizzle
10:21 AM 62.6 °F 60.8 °F 94% 30.23 in 10.0 mi NNE 6.9 mph - N/A   Light Drizzle
10:34 AM 62.6 °F 60.8 °F 94% 30.24 in 10.0 mi North 4.6 mph - N/A Rain Light Rain
10:53 AM 62.6 °F 60.8 °F 94% 30.24 in 10.0 mi North 3.5 mph - N/A Rain Light Rain
10:55 AM 63.3 °F 61.0 °F 92% 30.23 in 10.0 mi Calm Calm - 0.00 in Rain Light Rain
11:22 AM 64.4 °F 60.8 °F 88% 30.22 in 10.0 mi NE 3.5 mph - N/A Rain Light Rain
11:23 AM 64.4 °F 60.8 °F 88% 30.22 in 10.0 mi NE 3.5 mph - N/A Rain Light Rain
11:27 AM 64.4 °F 60.8 °F 88% 30.22 in 10.0 mi NE 3.5 mph - N/A Rain Light Rain
11:32 AM 64.4 °F 60.8 °F 88% 30.22 in 10.0 mi North 3.5 mph - N/A Rain Light Rain
11:33 AM 64.4 °F 60.8 °F 88% 30.22 in 10.0 mi Calm Calm - N/A Rain Light Rain
11:55 AM 64.0 °F 62.1 °F 93% 30.22 in 10.0 mi NW 4.6 mph - 0.01 in Rain Light Rain
12:09 PM 64.4 °F 62.6 °F 94% 30.22 in 10.0 mi NW 3.5 mph - N/A Rain Light Rain
12:10 PM 64.4 °F 62.6 °F 94% 30.21 in 10.0 mi NW 3.5 mph - N/A Rain Light Rain
12:19 PM 64.4 °F 62.6 °F 94% 30.22 in 10.0 mi NW 6.9 mph - N/A Rain Light Rain
12:36 PM 64.4 °F 62.6 °F 94% 30.20 in 10.0 mi NNW 5.8 mph - N/A Rain Light Rain
12:43 PM 64.4 °F 60.8 °F 88% 30.19 in 10.0 mi Calm Calm - N/A Rain Light Rain
12:48 PM 64.4 °F 62.6 °F 94% 30.19 in 10.0 mi Calm Calm - N/A Rain Light Rain
12:51 PM 64.4 °F 62.6 °F 94% 30.19 in 10.0 mi North 4.6 mph - N/A Rain Light Rain
12:53 PM 64.4 °F 62.6 °F 94% 30.19 in 10.0 mi NNE 4.6 mph - N/A Rain Light Rain
12:55 PM 64.4 °F 61.7 °F 91% 30.19 in 10.0 mi North 5.8 mph - 0.01 in Rain Light Rain
1:03 PM 64.4 °F 62.6 °F 94% 30.19 in 10.0 mi NNW 8.1 mph - N/A Rain Light Rain
1:13 PM 64.4 °F 62.6 °F 94% 30.19 in 10.0 mi North 4.6 mph - N/A   Light Drizzle
1:30 PM 64.4 °F 62.6 °F 94% 30.18 in 10.0 mi NNE 8.1 mph - N/A Rain Light Rain
1:31 PM 64.4 °F 62.6 °F 94% 30.18 in 10.0 mi North 6.9 mph - N/A Rain Light Rain
1:32 PM 64.4 °F 62.6 °F 94% 30.18 in 10.0 mi North 6.9 mph - N/A   Light Drizzle
1:34 PM 64.4 °F 62.6 °F 94% 30.18 in 10.0 mi NNE 5.8 mph - N/A   Light Drizzle
1:55 PM 64.9 °F 61.9 °F 90% 30.19 in 10.0 mi NNW 8.1 mph - 0.00 in   Light Drizzle
2:05 PM 64.4 °F 62.6 °F 94% 30.20 in 10.0 mi NW 6.9 mph - N/A   Mostly Cloudy
2:06 PM 64.4 °F 62.6 °F 94% 30.20 in 10.0 mi WNW 8.1 mph - N/A   Mostly Cloudy
2:08 PM 64.4 °F 62.6 °F 94% 30.20 in 10.0 mi NW 8.1 mph - N/A   Mostly Cloudy
2:14 PM 64.4 °F 62.6 °F 94% 30.21 in 10.0 mi WNW 8.1 mph - N/A   Mostly Cloudy
2:15 PM 64.4 °F 62.6 °F 94% 30.21 in 10.0 mi NW 6.9 mph - N/A   Mostly Cloudy
2:19 PM 64.4 °F 62.6 °F 94% 30.20 in 10.0 mi WNW 5.8 mph - N/A   Overcast
2:22 PM 64.4 °F 62.6 °F 94% 30.20 in 10.0 mi NNW 5.8 mph - N/A   Overcast
2:23 PM 64.4 °F 62.6 °F 94% 30.20 in 10.0 mi NW 6.9 mph - N/A   Overcast
2:55 PM 65.7 °F 61.2 °F 85% 30.20 in 10.0 mi NNW 8.1 mph - 0.00 in   Overcast
3:55 PM 65.3 °F 61.0 °F 86% 30.20 in 10.0 mi NNW 5.8 mph - N/A   Overcast
4:03 PM 64.4 °F 60.8 °F 88% 30.19 in 10.0 mi NNW 5.8 mph - N/A   Mostly Cloudy
4:08 PM 64.4 °F 60.8 °F 88% 30.19 in 10.0 mi NW 5.8 mph - N/A   Mostly Cloudy
4:24 PM 64.4 °F 60.8 °F 88% 30.20 in 10.0 mi NNW 9.2 mph - N/A   Mostly Cloudy
4:34 PM 64.4 °F 59.0 °F 83% 30.20 in 10.0 mi NNW 9.2 mph - N/A   Overcast
4:44 PM 64.4 °F 59.0 °F 83% 30.21 in 10.0 mi NNW 11.5 mph - N/A   Overcast
4:55 PM 63.0 °F 59.5 °F 89% 30.22 in 10.0 mi NNW 12.7 mph - 0.01 in   Overcast
5:05 PM 62.6 °F 59.0 °F 88% 30.22 in 10.0 mi NNW 10.4 mph - N/A   Overcast
5:11 PM 62.6 °F 59.0 °F 88% 30.22 in 10.0 mi NNW 12.7 mph - N/A   Overcast
5:17 PM 60.8 °F 59.0 °F 94% 30.23 in 7.0 mi NNW 12.7 mph - N/A   Light Drizzle
5:24 PM 60.8 °F 59.0 °F 94% 30.23 in 9.0 mi NNW 12.7 mph - N/A   Overcast
5:27 PM 60.8 °F 59.0 °F 94% 30.23 in 10.0 mi NNW 12.7 mph - N/A   Overcast
5:51 PM 60.8 °F 57.2 °F 88% 30.24 in 10.0 mi North 11.5 mph - N/A   Overcast
5:55 PM 60.4 °F 57.0 °F 88% 30.23 in 10.0 mi North 12.7 mph - 0.00 in   Overcast
6:42 PM 60.8 °F 55.4 °F 82% 30.24 in 10.0 mi North 12.7 mph - N/A   Overcast
6:48 PM 60.8 °F 55.4 °F 82% 30.24 in 10.0 mi North 11.5 mph - N/A   Mostly Cloudy
6:50 PM 59.0 °F 55.4 °F 88% 30.24 in 10.0 mi North 11.5 mph - N/A   Mostly Cloudy
6:55 PM 59.7 °F 55.0 °F 84% 30.24 in 10.0 mi North 12.7 mph - N/A   Mostly Cloudy
7:55 PM 57.2 °F 49.1 °F 74% 30.28 in 10.0 mi North 12.7 mph 23.0 mph N/A   Clear
8:55 PM 54.9 °F 42.3 °F 63% 30.28 in 10.0 mi North 10.4 mph - N/A   Clear
9:55 PM 53.6 °F 40.5 °F 61% 30.29 in 10.0 mi North 8.1 mph - N/A   Clear
10:55 PM 52.3 °F 37.6 °F 57% 30.28 in 10.0 mi North 6.9 mph - N/A   Clear
11:55 PM 50.5 °F 36.5 °F 59% 30.28 in 10.0 mi North 6.9 mph - N/A   Clear